Dati Storici

Data ora Umidita' aria (%) Temperatura aria (°C) Rad globale (W/m²) Gonioanemometro (°) Tacoanemometro (m/s) Pioggia (mm)
06-11-2012 12:10 47 % 15.554 480.731 293.528 1.336 0
06-11-2012 12:00 47.4 % 15.495 476.119 69.91 1.12 0
06-11-2012 11:50 46.9 % 15.636 465.487 37.436 1.53 0
06-11-2012 11:40 47 % 15.545 467.975 29.745 1.006 0
06-11-2012 11:30 49.1 % 15.05 447.32 3.25 0.499 0
06-11-2012 11:20 49.7 % 14.232 435.572 99.862 0.255 0
06-11-2012 11:10 51 % 14.518 425.803 293.254 0.329 0
06-11-2012 11:00 53.2 % 13.891 401.958 63.214 0.674 0
06-11-2012 10:50 55.7 % 13.246 386.262 322.845 1.13 0
06-11-2012 10:40 58.5 % 12.512 366.351 321.19 1.836 0
06-11-2012 10:30 60.3 % 12.415 342.648 297.817 0.299 0
06-11-2012 10:20 61.8 % 11.915 87.816 336.038 0.805 0
06-11-2012 10:10 63.3 % 11.499 300.79 296.733 1.204 0
06-11-2012 10:00 64.4 % 11.468 287.702 282.154 0.691 0
06-11-2012 09:50 66.5 % 11.071 273.515 282.916 0.648 0
06-11-2012 09:40 69.7 % 10.379 241.405 266.942 0.614 0
06-11-2012 09:30 72.1 % 9.75 89.442 263.579 0.65 0
06-11-2012 09:20 73.1 % 9.444 89.669 244.337 0.348 0
06-11-2012 09:10 73.4 % 9.203 61.44 322.215 0.364 0
06-11-2012 09:00 74.6 % 8.946 84.437 259.046 0.786 0

I dati sono presentati in modo automatico a scopo informativo. In seguito a verifica i dati possono subire modifiche o essere invalidati e non riportati negli archivi definitivi.